Regional Weather Roundup
Issued by NWS

Home | Current Version | Previous Version | Graphics & Text | Print | Product List | Glossary On
Versions: 1 2 3 4 5 6 7 8 9 10 11 12 13 14 15 16 17 18 19 20 21 22 23 24 25 26 27 28 29 30 31 32 33 34 35 36 37 38 39 40 41 42 43 44 45 46 47 48 49 50
000
ASUS43 KOAX 201002
RWRNE

WEATHER ROUNDUP FOR NEBRASKA
NATIONAL WEATHER SERVICE OMAHA NE
400 AM CST TUE FEB 20 2018

NOTES: SATELLITE DATA IS BEING USED TO AUGMENT CLOUD COVER ABOVE
       12000 FEET.
       "FAIR" INDICATES FEW OR NO CLOUDS BELOW 12,000 FEET WITH NO
       SIGNIFICANT WEATHER AND/OR OBSTRUCTIONS TO VISIBILITY.


NEZ001>004-019>022-054>056-201100-
NEBRASKA PANHANDLE

CITY           SKY/WX    TMP DP  RH WIND       PRES   REMARKS
SCOTTSBLUFF    MOCLDY     0  -6  76 NW8       29.95R WCI -14
ALLIANCE       CLOUDY    -2  -7  79 NW10      29.91R WCI -19
CHADRON        CLOUDY    -1  -6  79 NW3       30.00S
GORDON         LGT SNOW  -1  -6  76 NW12      29.92F WCI -18
KIMBALL        CLOUDY    -1  -7  77 NW12      29.84R WCI -19
SIDNEY         LGT SNOW  -1  -6  79 NW14      29.89S WCI -20
$$

NEZ057>060-069>072-079>082-201100-
SOUTHWEST NEBRASKA

CITY           SKY/WX    TMP DP  RH WIND       PRES   REMARKS
NORTH PLATTE   LGT SNOW   5  -1  76 NW16G23   29.94F VSB 1   WCI -14
IMPERIAL       MOCLDY     3  -2  79 NW16      29.94R WCI -16
LEXINGTON      CLOUDY    11   4  74 NW17      29.94S WCI  -6
MCCOOK         CLOUDY     9   3  77 N18       29.94S WCI -10
OGALLALA       FLURRIES   4  -3  74 NW15      29.95S WCI -15
$$

NEZ005>010-023>029-035>040-094-201100-
NORTH CENTRAL NEBRASKA

CITY           SKY/WX    TMP DP  RH WIND       PRES   REMARKS
VALENTINE      CLOUDY     3  -4  72 NW10      29.98F WCI -12
AINSWORTH      LGT SNOW   3  -1  83 NW18G25   29.94S WCI -17
BROKEN BOW     MIX PCPN   7   0  73 NW13G22   29.94R WCI  -9
O`NEILL        LGT SNOW   6   2  85 NW20      29.95R WCI -14
ORD            CLOUDY     8   2  76 NW21      29.94R WCI -12
THEDFORD       CLOUDY     4  -1  80 NW14G22   29.97R WCI -14
$$

NEZ041-046>049-061>064-073>077-083>087-201100-
SOUTH CENTRAL NEBRASKA

CITY           SKY/WX    TMP DP  RH WIND       PRES   REMARKS
GRAND ISLAND   CLOUDY    13   6  74 N16       29.92S WCI  -3
AURORA         CLOUDY    13   9  81 N15       29.92R WCI  -2
HASTINGS       CLOUDY    13   7  77 N16       29.93R WCI  -3
HEBRON         CLOUDY    18  16  92 N13       29.92R FOG     WCI   5
HOLDREGE       CLOUDY    12   6  79 NW15G21   29.93R WCI  -4
KEARNEY        FLURRIES  11   6  81 NW15G24   29.94R WCI  -5
YORK           CLOUDY    16  14  93 N10       29.92R WCI   3
$$

NEZ011>018-030>034-042>045-201100-
NORTHEAST NEBRASKA

CITY           SKY/WX    TMP DP  RH WIND       PRES   REMARKS
NORFOLK        CLOUDY    11   7  84 NW15G24   29.92R WCI  -5
ALBION         CLOUDY    11   5  78 NW17      29.92R WCI  -6
BLAIR          CLOUDY    20  18  91 NW7       29.86F FOG     WCI  11
COLUMBUS       FLURRIES  14   9  80 NW15      29.94R WCI  -1
FREMONT        CLOUDY    19  17  92 NW13      29.91S FOG     WCI   6
TEKAMAH        CLOUDY    19  17  92 NW14      29.90F WCI   6
WAYNE          CLOUDY    13  11  90 N13       29.92R WCI  -1
$$

NEZ050>053-065>068-078-088>093-201100-
SOUTHEAST NEBRASKA

CITY           SKY/WX    TMP DP  RH WIND       PRES   REMARKS
LINCOLN        FLURRIES  20  17  88 N14       29.92R WCI   7
OMAHA EPPLEY   FRZ DRZL  21  18  88 NW15      29.90S FOG     WCI   8
BEATRICE       CLOUDY    22  21  94 N17       29.90R FOG     WCI   8
FALLS CITY     CLOUDY    24  22  91 NW14G21   29.87S WCI  12
NEBRASKA CITY  CLOUDY    23  23 100 NW12      29.88S FOG     WCI  12
PLATTSMOUTH    CLOUDY    22  20  94 NW13      29.89R FOG     WCI  10
$$

NEZ044-045-051>053-067-201100-
OMAHA AREA

CITY           SKY/WX    TMP DP  RH WIND       PRES   REMARKS
OMAHA EPPLEY   FRZ DRZL  21  18  88 NW15      29.90S FOG     WCI   8
BLAIR          CLOUDY    20  18  91 NW7       29.86F FOG     WCI  11
FREMONT        CLOUDY    19  17  92 NW13      29.91S FOG     WCI   6
MILLARD        MIX PCPN  22  19  89 NW8       29.90S WCI  13
OFFUTT AFB     FRZ DRZL  21  18  87 NW10      29.89R WCI  10
PLATTSMOUTH    CLOUDY    22  20  94 NW13      29.89R FOG     WCI  10
WAHOO          CLOUDY    20  17  88 NW14      29.90S WCI   6
$$




USA.gov is the U.S. government's official web portal to all federal, state and local government web resources and services.